Time,TemperatureF,DewpointF,PressureIn,WindDirection,WindDirectionDegrees,WindSpeedMPH,WindSpeedGustMPH,Humidity,HourlyPrecipIn,Conditions,Clouds,dailyrainin,SolarRadiationWatts/m^2,SoftwareType,DateUTC
2013-11-19 00:01:00,61.0,47.0,-100.00,NE,40,1.0,5.0,61,0.00,,,0.00,0.000000,,2013-11-19 08:01:00,
2013-11-19 00:11:00,61.0,47.0,-100.00,NE,40,1.0,5.0,61,0.00,,,0.00,0.000000,,2013-11-19 08:11:00,
2013-11-19 00:21:00,61.0,47.0,-100.00,NE,40,1.0,5.0,61,0.00,,,0.00,0.000000,,2013-11-19 08:21:00,
2013-11-19 00:52:00,60.0,48.0,-100.00,West,279,3.0,5.0,65,0.00,,,0.00,0.000000,,2013-11-19 08:52:00,
2013-11-19 01:02:00,60.0,48.0,-100.00,West,279,3.0,5.0,65,0.00,,,0.00,0.000000,,2013-11-19 09:02:00,
2013-11-19 01:11:00,60.0,48.0,-100.00,West,279,3.0,5.0,65,0.00,,,0.00,0.000000,,2013-11-19 09:11:00,
2013-11-19 01:21:00,60.0,48.0,-100.00,West,279,3.0,5.0,65,0.00,,,0.00,0.000000,,2013-11-19 09:21:00,
2013-11-19 01:53:00,59.0,52.0,-100.00,SSW,202,0.0,3.0,78,0.00,,,0.00,0.000000,,2013-11-19 09:53:00,
2013-11-19 02:03:00,59.0,52.0,-100.00,SSW,202,0.0,3.0,78,0.00,,,0.00,0.000000,,2013-11-19 10:03:00,
2013-11-19 02:12:00,59.0,52.0,-100.00,SSW,202,0.0,3.0,78,0.00,,,0.00,0.000000,,2013-11-19 10:12:00,
2013-11-19 02:23:00,59.0,52.0,-100.00,SSW,202,0.0,3.0,78,0.00,,,0.00,0.000000,,2013-11-19 10:23:00,
2013-11-19 02:53:00,58.0,48.0,-100.00,North,5,0.0,6.0,69,0.00,,,0.00,0.000000,,2013-11-19 10:53:00,
2013-11-19 03:02:00,58.0,48.0,-100.00,North,5,0.0,6.0,69,0.00,,,0.00,0.000000,,2013-11-19 11:02:00,
2013-11-19 03:12:00,58.0,48.0,-100.00,North,5,0.0,6.0,69,0.00,,,0.00,0.000000,,2013-11-19 11:12:00,
2013-11-19 03:22:00,58.0,48.0,-100.00,North,5,0.0,6.0,69,0.00,,,0.00,0.000000,,2013-11-19 11:22:00,
2013-11-19 03:52:00,56.0,47.0,-100.00,NE,35,2.0,4.0,72,0.00,,,0.00,0.000000,,2013-11-19 11:52:00,
2013-11-19 04:01:00,56.0,47.0,-100.00,NE,35,2.0,4.0,72,0.00,,,0.00,0.000000,,2013-11-19 12:01:00,
2013-11-19 04:12:00,56.0,47.0,-100.00,NE,35,2.0,4.0,72,0.00,,,0.00,0.000000,,2013-11-19 12:12:00,
2013-11-19 04:21:00,56.0,47.0,-100.00,NE,35,2.0,4.0,72,0.00,,,0.00,0.000000,,2013-11-19 12:21:00,
2013-11-19 04:52:00,55.0,48.0,-100.00,East,79,0.0,3.0,77,0.00,,,-99.99,0.000000,,2013-11-19 12:52:00,
2013-11-19 05:01:00,55.0,48.0,-100.00,East,79,0.0,3.0,77,0.00,,,-99.99,0.000000,,2013-11-19 13:01:00,
2013-11-19 05:11:00,55.0,48.0,-100.00,East,79,0.0,3.0,77,0.00,,,-99.99,0.000000,,2013-11-19 13:11:00,
2013-11-19 05:21:00,55.0,48.0,-100.00,East,79,0.0,3.0,77,0.00,,,-99.99,0.000000,,2013-11-19 13:21:00,
2013-11-19 05:52:00,54.0,47.0,-100.00,WNW,292,0.0,4.0,77,0.00,,,0.00,0.000000,,2013-11-19 13:52:00,
2013-11-19 06:02:00,54.0,47.0,-100.00,WNW,292,0.0,4.0,77,0.00,,,0.00,0.000000,,2013-11-19 14:02:00,
2013-11-19 06:11:00,54.0,47.0,-100.00,WNW,292,0.0,4.0,77,0.00,,,0.00,0.000000,,2013-11-19 14:11:00,
2013-11-19 06:21:00,54.0,47.0,-100.00,WNW,292,0.0,4.0,77,0.00,,,0.00,0.000000,,2013-11-19 14:21:00,
2013-11-19 06:52:00,54.0,47.0,-100.00,NE,45,0.0,4.0,78,0.00,,,0.00,4.000000,,2013-11-19 14:52:00,
2013-11-19 07:01:00,54.0,47.0,-100.00,NE,45,0.0,4.0,78,0.00,,,0.00,4.000000,,2013-11-19 15:01:00,
2013-11-19 07:11:00,54.0,47.0,-100.00,NE,45,0.0,4.0,78,0.00,,,0.00,4.000000,,2013-11-19 15:11:00,
2013-11-19 07:21:00,54.0,47.0,-100.00,NE,45,0.0,4.0,78,0.00,,,0.00,4.000000,,2013-11-19 15:21:00,
2013-11-19 07:54:00,56.0,48.0,-100.00,NNE,28,3.0,4.0,75,0.00,,,0.00,77.000000,,2013-11-19 15:54:00,
2013-11-19 08:04:00,56.0,48.0,-100.00,NNE,28,3.0,4.0,75,0.00,,,0.00,77.000000,,2013-11-19 16:04:00,
2013-11-19 08:13:00,56.0,48.0,-100.00,NNE,28,3.0,4.0,75,0.00,,,0.00,77.000000,,2013-11-19 16:13:00,
2013-11-19 08:22:00,56.0,48.0,-100.00,NNE,28,3.0,4.0,75,0.00,,,0.00,77.000000,,2013-11-19 16:22:00,
2013-11-19 08:52:00,60.0,47.0,-100.00,NNE,28,3.0,5.0,63,0.00,,,0.00,245.000000,,2013-11-19 16:52:00,
2013-11-19 09:02:00,60.0,47.0,-100.00,NNE,28,3.0,5.0,63,0.00,,,0.00,245.000000,,2013-11-19 17:02:00,
2013-11-19 09:12:00,60.0,47.0,-100.00,NNE,28,3.0,5.0,63,0.00,,,0.00,245.000000,,2013-11-19 17:12:00,
2013-11-19 09:22:00,60.0,47.0,-100.00,NNE,28,3.0,5.0,63,0.00,,,0.00,245.000000,,2013-11-19 17:22:00,
2013-11-19 09:52:00,67.0,48.0,-100.00,SW,232,2.0,3.0,51,0.00,,,0.00,433.000000,,2013-11-19 17:52:00,
2013-11-19 10:02:00,67.0,48.0,-100.00,SW,232,2.0,3.0,51,0.00,,,0.00,433.000000,,2013-11-19 18:02:00,
2013-11-19 10:12:00,67.0,48.0,-100.00,SW,232,2.0,3.0,51,0.00,,,0.00,433.000000,,2013-11-19 18:12:00,
2013-11-19 10:22:00,67.0,48.0,-100.00,SW,232,2.0,3.0,51,0.00,,,0.00,433.000000,,2013-11-19 18:22:00,
2013-11-19 10:52:00,72.0,49.0,-100.00,SSW,207,2.0,5.0,45,0.00,,,0.00,639.000000,,2013-11-19 18:52:00,
2013-11-19 11:01:00,72.0,49.0,-100.00,SSW,207,2.0,5.0,45,0.00,,,0.00,639.000000,,2013-11-19 19:01:00,
2013-11-19 11:11:00,72.0,49.0,-100.00,SSW,207,2.0,5.0,45,0.00,,,0.00,639.000000,,2013-11-19 19:11:00,
2013-11-19 11:21:00,72.0,49.0,-100.00,SSW,207,2.0,5.0,45,0.00,,,0.00,639.000000,,2013-11-19 19:21:00,
2013-11-19 11:52:00,76.0,49.0,-100.00,SSW,197,3.0,6.0,39,0.00,,,0.00,709.000000,,2013-11-19 19:52:00,
2013-11-19 12:02:00,76.0,49.0,-100.00,SSW,197,3.0,6.0,39,0.00,,,0.00,709.000000,,2013-11-19 20:02:00,
2013-11-19 12:11:00,76.0,49.0,-100.00,SSW,197,3.0,6.0,39,0.00,,,0.00,709.000000,,2013-11-19 20:11:00,
2013-11-19 12:21:00,76.0,49.0,-100.00,SSW,197,3.0,6.0,39,0.00,,,0.00,709.000000,,2013-11-19 20:21:00,
2013-11-19 12:52:00,77.0,47.0,-100.00,SW,220,7.0,14.0,35,0.00,,,0.00,702.000000,,2013-11-19 20:52:00,
2013-11-19 13:02:00,77.0,47.0,-100.00,SW,220,7.0,14.0,35,0.00,,,0.00,702.000000,,2013-11-19 21:02:00,
2013-11-19 13:11:00,77.0,47.0,-100.00,SW,220,7.0,14.0,35,0.00,,,0.00,702.000000,,2013-11-19 21:11:00,
2013-11-19 13:21:00,77.0,47.0,-100.00,SW,220,7.0,14.0,35,0.00,,,0.00,702.000000,,2013-11-19 21:21:00,
2013-11-19 13:54:00,78.0,47.0,-100.00,SW,218,8.0,13.0,33,0.00,,,0.00,619.000000,,2013-11-19 21:54:00,
2013-11-19 14:03:00,78.0,47.0,-100.00,SW,218,8.0,13.0,33,0.00,,,0.00,619.000000,,2013-11-19 22:03:00,
2013-11-19 14:12:00,78.0,47.0,-100.00,SW,218,8.0,13.0,33,0.00,,,0.00,619.000000,,2013-11-19 22:12:00,
2013-11-19 14:22:00,78.0,47.0,-100.00,SW,218,8.0,13.0,33,0.00,,,0.00,619.000000,,2013-11-19 22:22:00,
2013-11-19 14:53:00,77.0,46.0,-100.00,SSW,213,7.0,17.0,34,0.00,,,0.00,395.000000,,2013-11-19 22:53:00,
2013-11-19 15:02:00,77.0,46.0,-100.00,SSW,213,7.0,17.0,34,0.00,,,0.00,395.000000,,2013-11-19 23:02:00,
2013-11-19 15:12:00,77.0,46.0,-100.00,SSW,213,7.0,17.0,34,0.00,,,0.00,395.000000,,2013-11-19 23:12:00,
2013-11-19 15:21:00,77.0,46.0,-100.00,SSW,213,7.0,17.0,34,0.00,,,0.00,395.000000,,2013-11-19 23:21:00,
2013-11-19 15:52:00,74.0,45.0,-100.00,SW,226,7.0,14.0,36,0.00,,,0.00,117.000000,,2013-11-19 23:52:00,
2013-11-19 16:02:00,74.0,45.0,-100.00,SW,226,7.0,14.0,36,0.00,,,0.00,117.000000,,2013-11-20 00:02:00,
2013-11-19 16:11:00,74.0,45.0,-100.00,SW,226,7.0,14.0,36,0.00,,,0.00,117.000000,,2013-11-20 00:11:00,
2013-11-19 16:21:00,74.0,45.0,-100.00,SW,226,7.0,14.0,36,0.00,,,0.00,117.000000,,2013-11-20 00:21:00,
2013-11-19 16:52:00,72.0,46.0,-100.00,West,272,8.0,11.0,40,0.00,,,0.00,34.000000,,2013-11-20 00:52:00,
2013-11-19 17:01:00,72.0,46.0,-100.00,West,272,8.0,11.0,40,0.00,,,0.00,34.000000,,2013-11-20 01:01:00,
2013-11-19 17:11:00,72.0,46.0,-100.00,West,272,8.0,11.0,40,0.00,,,0.00,34.000000,,2013-11-20 01:11:00,
2013-11-19 17:21:00,72.0,46.0,-100.00,West,272,8.0,11.0,40,0.00,,,0.00,34.000000,,2013-11-20 01:21:00,
2013-11-19 17:52:00,70.0,46.0,-100.00,WNW,289,2.0,8.0,43,0.00,,,0.00,1.000000,,2013-11-20 01:52:00,
2013-11-19 18:01:00,70.0,46.0,-100.00,WNW,289,2.0,8.0,43,0.00,,,0.00,1.000000,,2013-11-20 02:01:00,
2013-11-19 18:11:00,70.0,46.0,-100.00,WNW,289,2.0,8.0,43,0.00,,,0.00,1.000000,,2013-11-20 02:11:00,
2013-11-19 18:21:00,70.0,46.0,-100.00,WNW,289,2.0,8.0,43,0.00,,,0.00,1.000000,,2013-11-20 02:21:00,
2013-11-19 18:52:00,69.0,44.0,-100.00,WNW,290,5.0,9.0,41,0.00,,,0.00,0.000000,,2013-11-20 02:52:00,
2013-11-19 19:02:00,69.0,44.0,-100.00,WNW,290,5.0,9.0,41,0.00,,,0.00,0.000000,,2013-11-20 03:02:00,
2013-11-19 19:11:00,69.0,44.0,-100.00,WNW,290,5.0,9.0,41,0.00,,,0.00,0.000000,,2013-11-20 03:11:00,
2013-11-19 19:21:00,69.0,44.0,-100.00,WNW,290,5.0,9.0,41,0.00,,,0.00,0.000000,,2013-11-20 03:21:00,
2013-11-19 19:54:00,67.0,45.0,-100.00,WSW,256,3.0,6.0,45,0.00,,,-99.99,0.000000,,2013-11-20 03:54:00,
2013-11-19 20:03:00,67.0,45.0,-100.00,WSW,256,3.0,6.0,45,0.00,,,-99.99,0.000000,,2013-11-20 04:03:00,
2013-11-19 20:13:00,67.0,45.0,-100.00,WSW,256,3.0,6.0,45,0.00,,,-99.99,0.000000,,2013-11-20 04:13:00,
2013-11-19 20:23:00,67.0,45.0,-100.00,WSW,256,3.0,6.0,45,0.00,,,-99.99,0.000000,,2013-11-20 04:23:00,
2013-11-19 20:52:00,65.0,47.0,-100.00,SW,226,3.0,5.0,53,0.00,,,-99.99,0.000000,,2013-11-20 04:52:00,
2013-11-19 21:02:00,65.0,47.0,-100.00,SW,226,3.0,5.0,53,0.00,,,-99.99,0.000000,,2013-11-20 05:02:00,
2013-11-19 21:12:00,65.0,47.0,-100.00,SW,226,3.0,5.0,53,0.00,,,-99.99,0.000000,,2013-11-20 05:12:00,
2013-11-19 21:22:00,65.0,47.0,-100.00,SW,226,3.0,5.0,53,0.00,,,-99.99,0.000000,,2013-11-20 05:22:00,
2013-11-19 21:53:00,64.0,48.0,-100.00,West,262,2.0,5.0,56,0.00,,,0.00,0.000000,,2013-11-20 05:53:00,
2013-11-19 22:02:00,64.0,48.0,-100.00,West,262,2.0,5.0,56,0.00,,,0.00,0.000000,,2013-11-20 06:02:00,
2013-11-19 22:12:00,64.0,48.0,-100.00,West,262,2.0,5.0,56,0.00,,,0.00,0.000000,,2013-11-20 06:12:00,
2013-11-19 22:21:00,64.0,48.0,-100.00,West,262,2.0,5.0,56,0.00,,,0.00,0.000000,,2013-11-20 06:21:00,
2013-11-19 22:52:00,61.0,46.0,-100.00,SW,214,0.0,6.0,57,0.00,,,0.00,0.000000,,2013-11-20 06:52:00,
2013-11-19 23:01:00,61.0,46.0,-100.00,SW,214,0.0,6.0,57,0.00,,,0.00,0.000000,,2013-11-20 07:01:00,
2013-11-19 23:11:00,61.0,46.0,-100.00,SW,214,0.0,6.0,57,0.00,,,0.00,0.000000,,2013-11-20 07:11:00,
2013-11-19 23:21:00,61.0,46.0,-100.00,SW,214,0.0,6.0,57,0.00,,,0.00,0.000000,,2013-11-20 07:21:00,
2013-11-19 23:52:00,59.0,49.0,-100.00,NNE,26,3.0,5.0,70,0.00,,,0.00,0.000000,,2013-11-20 07:52:00,